TimeCDT,TemperatureF,Dew PointF,Humidity,Sea Level PressureIn,VisibilityMPH,Wind Direction,Wind SpeedMPH,Gust SpeedMPH,PrecipitationIn,Events,Conditions,WindDirDegrees,DateUTC
12:15 AM,33.8,30.2,87,30.22,7.0,North,12.7,17.3,0.03,,Overcast,350,2013-05-03 05:15:00
12:35 AM,33.8,30.2,87,30.23,10.0,NNW,9.2,-,0.03,,Overcast,330,2013-05-03 05:35:00
12:55 AM,33.8,30.2,87,30.20,6.0,North,13.8,20.7,0.03,,Overcast,350,2013-05-03 05:55:00
1:15 AM,33.8,30.2,87,30.19,5.0,NNW,12.7,18.4,0.01,,Overcast,340,2013-05-03 06:15:00
1:35 AM,33.8,30.2,87,30.20,5.0,NNW,11.5,-,0.01,,Overcast,340,2013-05-03 06:35:00
1:55 AM,33.8,30.2,87,30.19,10.0,NNW,10.4,16.1,0.01,,Overcast,330,2013-05-03 06:55:00
2:15 AM,33.8,30.2,87,30.17,10.0,North,12.7,17.3,N/A,,Overcast,350,2013-05-03 07:15:00
2:35 AM,33.8,30.2,87,30.15,7.0,NNW,10.4,18.4,N/A,,Overcast,340,2013-05-03 07:35:00
2:55 AM,33.8,30.2,87,30.14,3.0,North,12.7,17.3,0.01,,Overcast,350,2013-05-03 07:55:00
3:15 AM,33.8,30.2,87,30.14,3.0,NNW,11.5,17.3,N/A,,Overcast,340,2013-05-03 08:15:00
3:35 AM,33.8,30.2,87,30.16,1.5,NNW,8.1,-,N/A,,Overcast,330,2013-05-03 08:35:00
3:55 AM,33.8,30.2,87,30.15,1.2,NNW,12.7,-,0.01,,Overcast,340,2013-05-03 08:55:00
4:15 AM,33.8,30.2,87,30.13,1.5,NNW,13.8,17.3,N/A,,Overcast,340,2013-05-03 09:15:00
4:35 AM,33.8,30.2,87,30.13,1.5,NNW,11.5,16.1,0.02,,Overcast,340,2013-05-03 09:35:00
4:55 AM,33.8,30.2,87,30.15,3.0,NNW,8.1,18.4,0.03,,Overcast,340,2013-05-03 09:55:00
5:15 AM,33.8,30.2,87,30.12,6.0,NNW,10.4,17.3,0.03,,Overcast,340,2013-05-03 10:15:00
5:35 AM,33.8,30.2,87,30.10,5.0,NNW,12.7,18.4,0.06,,Overcast,340,2013-05-03 10:35:00
5:55 AM,33.8,30.2,87,30.11,9.0,NNW,12.7,18.4,0.07,,Overcast,340,2013-05-03 10:55:00
6:15 AM,33.8,30.2,87,30.11,10.0,NNW,9.2,18.4,0.01,,Overcast,340,2013-05-03 11:15:00
6:35 AM,33.8,30.2,87,30.11,9.0,NNW,10.4,-,0.01,,Overcast,340,2013-05-03 11:35:00
6:55 AM,33.8,30.2,87,30.09,9.0,NNW,12.7,20.7,0.01,,Overcast,340,2013-05-03 11:55:00
7:15 AM,33.8,30.2,87,30.10,10.0,NNW,9.2,17.3,N/A,,Overcast,330,2013-05-03 12:15:00
7:35 AM,35.6,30.2,81,30.09,10.0,NNW,10.4,18.4,N/A,,Overcast,340,2013-05-03 12:35:00
7:55 AM,35.6,30.2,81,30.09,9.0,NNW,9.2,16.1,N/A,,Overcast,330,2013-05-03 12:55:00
8:15 AM,35.6,30.2,81,30.09,8.0,NNW,8.1,16.1,N/A,,Overcast,340,2013-05-03 13:15:00
8:35 AM,35.6,30.2,81,30.09,8.0,NNW,13.8,20.7,N/A,,Overcast,340,2013-05-03 13:35:00
8:55 AM,35.6,30.2,81,30.09,9.0,NNW,12.7,17.3,N/A,,Overcast,340,2013-05-03 13:55:00
9:15 AM,35.6,30.2,81,30.09,10.0,NNW,5.8,-,N/A,,Overcast,330,2013-05-03 14:15:00
9:35 AM,35.6,32.0,87,30.07,9.0,NW,11.5,-,N/A,,Overcast,320,2013-05-03 14:35:00
9:55 AM,35.6,32.0,87,30.08,10.0,NNW,12.7,17.3,N/A,,Overcast,340,2013-05-03 14:55:00
10:15 AM,37.4,32.0,81,30.09,10.0,NNW,8.1,-,N/A,,Overcast,340,2013-05-03 15:15:00
10:35 AM,37.4,32.0,81,30.08,5.0,NNW,10.4,-,N/A,,Overcast,330,2013-05-03 15:35:00
10:55 AM,37.4,33.8,87,30.07,6.0,NW,10.4,16.1,N/A,,Overcast,320,2013-05-03 15:55:00
11:15 AM,37.4,33.8,87,30.07,5.0,NW,11.5,-,N/A,,Overcast,310,2013-05-03 16:15:00
11:35 AM,37.4,33.8,87,30.07,5.0,NW,8.1,16.1,N/A,,Overcast,310,2013-05-03 16:35:00
11:55 AM,39.2,33.8,81,30.06,5.0,NW,12.7,-,N/A,,Overcast,320,2013-05-03 16:55:00
12:15 PM,39.2,33.8,81,30.06,7.0,NW,12.7,17.3,N/A,,Overcast,310,2013-05-03 17:15:00
12:35 PM,39.2,33.8,81,30.05,7.0,NW,9.2,19.6,0.01,,Overcast,310,2013-05-03 17:35:00
12:55 PM,39.2,35.6,87,30.05,9.0,NW,17.3,25.3,0.02,,Overcast,310,2013-05-03 17:55:00
1:15 PM,39.2,35.6,87,30.04,10.0,NNW,10.4,18.4,N/A,,Overcast,330,2013-05-03 18:15:00
1:35 PM,41.0,35.6,81,30.03,10.0,NW,8.1,18.4,N/A,,Overcast,320,2013-05-03 18:35:00
1:55 PM,41.0,33.8,76,30.03,10.0,NW,9.2,19.6,0.01,,Overcast,310,2013-05-03 18:55:00
2:15 PM,41.0,35.6,81,30.03,10.0,NW,13.8,19.6,0.01,,Overcast,320,2013-05-03 19:15:00
2:35 PM,41.0,33.8,76,30.02,10.0,North,10.4,-,0.01,,Overcast,350,2013-05-03 19:35:00
2:55 PM,41.0,35.6,81,30.02,10.0,North,8.1,-,0.01,,Overcast,350,2013-05-03 19:55:00
3:15 PM,42.8,35.6,76,30.01,10.0,NNW,10.4,-,N/A,,Overcast,330,2013-05-03 20:15:00
3:35 PM,44.6,33.8,66,30.00,10.0,North,8.1,-,N/A,,Mostly Cloudy,350,2013-05-03 20:35:00
3:55 PM,44.6,30.2,57,29.99,10.0,NNW,11.5,21.9,N/A,,Mostly Cloudy,330,2013-05-03 20:55:00
4:15 PM,44.6,28.4,53,29.99,10.0,NNW,12.7,20.7,N/A,,Mostly Cloudy,330,2013-05-03 21:15:00
4:35 PM,44.6,30.2,57,29.98,10.0,NNW,18.4,24.2,N/A,,Overcast,340,2013-05-03 21:35:00
4:55 PM,44.6,30.2,57,29.98,10.0,NNW,8.1,-,N/A,,Overcast,340,2013-05-03 21:55:00
5:15 PM,44.6,30.2,57,29.98,10.0,North,11.5,-,N/A,,Mostly Cloudy,350,2013-05-03 22:15:00
5:35 PM,46.4,28.4,50,29.97,10.0,NNW,9.2,19.6,N/A,,Mostly Cloudy,330,2013-05-03 22:35:00
5:55 PM,44.6,28.4,53,29.98,10.0,NNW,11.5,18.4,N/A,,Partly Cloudy,340,2013-05-03 22:55:00
6:15 PM,44.6,26.6,49,29.98,10.0,NNW,11.5,18.4,N/A,,Scattered Clouds,330,2013-05-03 23:15:00
6:35 PM,44.6,26.6,49,29.98,10.0,NW,10.4,17.3,N/A,,Mostly Cloudy,310,2013-05-03 23:35:00
6:55 PM,44.6,28.4,53,29.97,10.0,NW,8.1,-,N/A,,Overcast,320,2013-05-03 23:55:00
7:15 PM,44.6,28.4,53,29.98,10.0,North,11.5,-,N/A,,Overcast,10,2013-05-04 00:15:00
7:35 PM,42.8,30.2,61,29.98,10.0,North,10.4,-,N/A,,Overcast,360,2013-05-04 00:35:00
7:55 PM,42.8,30.2,61,29.98,10.0,North,11.5,17.3,N/A,,Overcast,350,2013-05-04 00:55:00
8:15 PM,42.8,28.4,57,29.98,10.0,NNW,9.2,17.3,N/A,,Overcast,340,2013-05-04 01:15:00
8:35 PM,42.8,28.4,57,29.98,10.0,NW,9.2,21.9,N/A,,Overcast,320,2013-05-04 01:35:00
8:55 PM,41.0,30.2,65,29.98,10.0,NNW,10.4,24.2,N/A,,Overcast,330,2013-05-04 01:55:00
9:15 PM,39.2,32.0,75,29.98,10.0,North,9.2,-,N/A,,Overcast,350,2013-05-04 02:15:00
9:35 PM,39.2,32.0,75,29.98,10.0,NW,5.8,-,N/A,,Overcast,320,2013-05-04 02:35:00
9:55 PM,39.2,32.0,75,29.98,10.0,NNW,4.6,-,N/A,,Overcast,330,2013-05-04 02:55:00
10:15 PM,39.2,32.0,75,29.97,10.0,NW,5.8,-,N/A,,Mostly Cloudy,320,2013-05-04 03:15:00
10:35 PM,39.2,32.0,75,29.96,10.0,NW,6.9,-,N/A,,Overcast,320,2013-05-04 03:35:00
10:55 PM,39.2,32.0,75,29.95,10.0,NNW,6.9,-,N/A,,Overcast,330,2013-05-04 03:55:00
11:15 PM,37.4,30.2,75,29.94,10.0,NNW,9.2,-,N/A,,Overcast,330,2013-05-04 04:15:00
11:35 PM,37.4,30.2,75,29.94,10.0,NW,8.1,-,N/A,,Overcast,320,2013-05-04 04:35:00
11:55 PM,37.4,30.2,75,29.93,10.0,NW,11.5,-,N/A,,Overcast,310,2013-05-04 04:55:00